Probability
0 0 0 0 0 0 0 0 0 0 0 1 1 1 2 2 2 5 6 6 5 5 7 10 11 14 17 22 25 22 16 13 11 10 8 7 6 5 6 6 7 6 5 4
0 0 0 0 0 0 0 0 0 0 1 2 3 2 2 2 2 4 7 8 8 8 10 13 14 15 18 23 27 25 20 16 13 12 10 8 6 4 4 5 7 7 5 5
0 0 0 0 0 0 0 0 0 0 2 3 4 4 4 3 2 4 8 10 11 12 14 17 16 16 19 24 26 25 22 20 17 14 12 9 6 3 3 4 7 9 8 7
0 0 0 0 0 0 0 0 0 0 1 3 4 4 6 6 4 5 9 11 13 15 17 20 20 20 21 22 22 24 24 23 20 17 13 9 6 3 3 4 6 9 10 11
0 0 0 0 0 0 0 0 0 0 0 1 2 4 7 8 6 6 9 12 14 15 18 23 25 24 23 22 20 23 27 27 24 19 13 9 8 6 5 5 6 9 12 15
0 0 0 0 0 0 0 0 0 0 0 0 1 4 7 8 6 8 10 11 12 13 17 23 26 26 25 24 22 24 30 31 28 22 15 12 11 9 9 9 9 10 14 18
0 0 0 0 0 0 0 0 0 0 1 0 0 3 6 6 6 8 12 11 9 11 16 21 24 26 28 27 26 28 34 36 33 28 22 18 15 13 13 13 12 12 14 17
0 0 0 0 0 0 0 0 0 0 0 0 0 2 4 5 5 9 12 12 10 11 15 19 23 26 29 30 31 33 38 41 40 36 30 26 21 16 16 16 14 11 12 14
0 0 0 0 0 0 0 0 0 0 0 0 1 3 5 5 6 8 11 12 11 11 13 17 23 27 29 32 33 35 38 43 45 41 35 30 25 20 18 19 17 14 13 14
0 0 0 0 0 0 0 0 0 0 0 0 0 2 5 7 6 6 9 11 10 10 12 16 22 27 30 32 33 35 37 41 45 43 36 30 27 23 21 22 22 21 19 18
0 0 0 0 0 0 0 0 0 0 0 0 0 1 4 6 6 6 8 11 12 12 14 17 22 27 32 35 36 37 37 37 40 40 36 31 29 28 27 27 27 25 24 25
0 0 0 0 0 0 0 0 0 0 1 0 0 1 3 4 6 8 10 12 13 13 15 19 24 29 34 38 41 40 37 34 34 35 34 32 31 32 33 32 30 29 29 30
0 0 0 0 0 0 0 0 0 0 0 0 0 1 3 4 5 9 11 13 13 14 18 23 29 33 36 39 41 41 36 31 30 32 33 31 29 32 35 35 33 32 32 32
0 0 0 0 0 0 0 0 0 0 0 0 1 2 3 5 7 9 12 14 17 20 24 29 32 35 36 37 39 40 37 33 32 34 34 31 29 32 36 37 35 34 33 33
0 0 0 0 0 0 0 0 0 0 0 1 3 3 4 8 11 11 13 16 21 26 29 31 34 36 37 36 38 40 40 38 39 39 37 35 35 35 36 37 36 36 35 33
0 0 0 0 0 0 0 0 1 1 1 2 3 4 6 10 14 16 17 20 24 28 29 30 35 39 37 36 38 41 43 43 43 41 39 40 41 40 38 39 40 40 39 37
2 2 1 0 0 0 0 1 2 4 4 4 4 6 8 12 18 22 25 28 29 30 30 31 36 40 38 36 38 42 45 44 42 40 39 41 43 44 44 44 46 47 44 41
4 4 2 0 0 0 0 1 3 5 6 5 6 8 12 17 22 26 31 35 36 36 36 34 35 37 37 37 40 44 45 44 42 41 41 42 45 49 50 50 51 52 48 46
4 6 4 1 0 0 0 1 2 3 5 5 6 11 16 19 23 28 34 40 43 44 42 38 36 37 40 42 44 47 46 45 44 44 44 45 48 51 53 54 54 54 52 51
3 5 4 1 0 0 0 1 2 2 4 6 9 14 18 20 25 31 37 41 45 47 45 42 40 43 47 48 50 50 48 47 48 47 46 46 49 52 54 55 55 54 53 52
2 3 3 1 0 0 1 2 4 8 10 11 13 16 20 25 30 35 39 41 42 43 43 42 45 49 52 52 53 52 50 50 49 47 46 45 47 49 52 54 55 55 52 50
4 4 4 4 4 5 6 7 10 16 17 15 16 19 24 29 33 35 37 38 39 40 40 41 46 51 53 53 53 54 54 51 47 45 45 45 44 44 47 50 51 52 49 46
5 5 7 10 10 11 12 12 15 18 17 15 17 21 24 28 31 32 34 34 34 36 38 41 46 49 49 49 50 54 56 53 47 44 46 48 45 43 43 44 44 45 43 40
4 5 8 11 12 11 12 12 13 14 14 14 18 22 25 28 30 30 32 31 30 31 34 38 42 43 42 42 46 53 57 55 49 47 49 51 48 45 43 40 38 38 38 37
4 5 8 11 11 10 10 10 10 11 13 16 20 23 24 27 30 31 31 31 30 29 30 33 35 36 37 38 42 49 55 56 52 50 51 50 46 45 44 38 32 30 32 33
5 7 9 11 13 13 11 10 8 9 13 18 22 23 22 24 29 32 32 32 32 31 30 30 32 33 34 37 40 45 51 55 55 51 50 47 45 45 43 36 26 21 23 23
Wind_Speed
11 10 9 8 9 6 5 3 3 4 6 5 5 10 11 11 10 12 12 12 11 11 12 12 11 11 10 9 8 6 5 4 3 2 2 2 2 1 1 2 3 2 1 1
10 11 10 7 6 6 5 4 5 3 5 4 3 5 9 10 10 11 12 12 12 12 12 12 11 10 10 9 8 7 6 5 4 3 1 1 1 1 2 2 3 2 1 1
12 9 8 8 8 7 7 6 4 3 3 5 5 5 6 8 8 9 11 11 13 13 13 12 11 10 10 10 9 7 6 5 4 3 2 1 1 1 1 2 2 2 2 1
13 11 9 7 7 7 6 5 4 5 6 3 4 4 7 9 10 10 10 10 11 13 13 13 13 11 11 10 10 7 6 5 4 4 3 3 3 2 2 1 2 2 2 1
11 10 9 7 7 8 6 4 3 5 6 6 5 4 5 9 9 10 11 10 10 12 13 13 13 12 11 11 10 8 7 6 5 4 3 3 2 2 2 2 2 2 2 2
11 10 9 8 8 7 5 4 5 6 7 8 6 5 4 5 8 9 11 11 11 12 13 13 12 12 10 11 10 10 8 6 6 5 4 3 3 2 1 1 2 2 2 2
13 14 11 10 9 8 5 4 4 5 6 6 5 4 3 5 7 9 11 12 12 12 12 12 13 12 11 10 10 9 9 7 7 6 5 4 3 3 2 2 2 2 1 2
13 12 12 9 9 7 8 8 6 6 6 5 5 4 3 5 4 6 9 10 11 11 12 12 12 12 11 11 9 9 9 8 7 6 5 4 4 3 3 4 2 2 1 1
9 8 9 9 8 9 9 9 9 8 9 7 4 3 4 6 7 7 9 9 9 9 11 12 12 12 11 11 10 10 9 8 7 7 6 5 4 4 3 2 2 2 1 1
9 8 8 7 9 10 11 9 7 6 6 7 6 4 4 5 6 7 8 9 8 8 7 10 11 10 10 10 9 9 9 9 7 6 6 5 5 4 3 2 2 2 1 1
10 10 9 8 10 10 10 11 8 6 5 6 6 3 3 4 6 7 9 10 9 8 7 7 8 9 9 9 9 9 9 8 7 6 5 4 5 5 4 3 3 2 2 2
8 9 8 11 9 9 10 10 8 6 5 5 6 4 3 3 5 5 6 8 8 7 7 7 7 7 7 8 8 8 8 8 7 6 6 5 4 4 4 4 3 3 3 2
5 6 8 10 9 8 10 10 9 9 7 5 6 5 4 4 6 5 6 6 6 6 7 7 6 5 5 6 6 7 7 7 7 7 6 5 5 4 4 4 3 2 2 2
5 8 10 10 6 6 9 11 10 9 7 6 6 4 2 3 5 6 6 6 7 6 6 6 5 4 4 4 4 5 6 6 7 7 6 6 5 4 4 3 3 3 2 2
7 9 10 12 12 11 10 10 10 10 10 7 4 4 3 1 4 5 5 6 6 6 5 5 5 4 3 3 3 4 5 5 5 6 6 5 5 4 4 3 3 3 3 3
6 7 9 12 13 12 13 12 11 11 9 7 5 4 1 4 6 5 4 5 5 5 4 4 5 4 3 3 3 3 4 4 4 5 4 4 4 4 4 3 3 3 3 2
6 6 8 11 12 12 14 12 11 8 6 5 4 1 1 3 5 5 4 5 4 3 2 3 4 4 4 3 3 3 4 4 4 4 4 4 4 4 4 4 3 3 3 2
5 5 6 9 10 14 7 5 6 4 2 1 1 3 3 3 5 5 5 5 5 4 3 2 1 3 3 3 3 3 4 4 4 4 4 4 4 4 3 3 3 3 2 2
7 6 7 8 11 12 7 5 5 5 2 1 1 2 2 2 4 5 7 6 5 4 3 2 1 2 2 2 2 2 3 4 4 4 4 4 4 4 4 4 3 3 3 2
9 7 8 9 11 10 4 4 4 3 3 2 2 3 3 2 1 4 7 7 6 5 4 3 2 2 2 2 2 2 3 3 4 4 4 4 4 4 4 4 3 3 3 3
11 10 12 12 11 5 4 6 6 6 0 4 3 3 2 4 4 5 5 5 5 4 4 4 3 3 2 1 1 2 2 2 3 3 3 3 4 4 4 3 3 3 3 3
9 9 10 10 11 6 2 3 3 4 4 4 4 4 4 5 4 5 5 4 4 4 4 4 3 3 2 2 2 1 1 0 1 2 3 3 3 4 4 3 3 3 3 3
6 4 3 3 2 3 4 5 5 3 3 3 3 4 4 4 4 5 4 4 4 3 3 3 3 3 2 2 1 0 0 1 1 2 2 2 3 3 3 3 3 3 3 4
4 3 3 3 2 1 2 3 3 3 2 2 3 3 3 3 3 3 2 2 2 2 3 3 3 3 3 2 1 1 1 2 2 2 2 2 3 4 3 3 4 4 4 4
6 4 4 4 4 3 1 1 2 2 2 3 3 2 2 2 1 1 1 1 1 2 2 2 2 2 2 2 2 2 1 1 2 2 2 3 3 3 3 3 2 4 4 4
6 5 5 4 2 3 2 1 1 0 0 1 2 2 2 1 1 1 1 1 1 1 1 1 2 2 2 2 3 3 2 1 2 2 2 3 3 2 3 3 2 2 1 3
Wind_Direction
226 233 235 224 227 238 222 213 230 195 158 169 150 145 164 165 167 161 164 165 166 164 161 157 156 151 149 146 147 150 156 151 152 166 180 169 162 167 144 142 129 140 143 154
234 236 244 248 239 241 254 235 236 211 164 147 151 159 167 170 175 172 170 171 167 165 162 157 158 158 155 151 150 154 163 161 171 170 188 184 172 184 167 130 135 162 158 206
241 239 232 236 244 239 247 254 253 253 220 163 174 184 172 174 167 177 172 172 169 167 162 159 165 165 161 159 158 161 161 161 178 165 188 203 170 234 144 144 154 181 186 193
242 244 242 237 253 254 247 256 279 274 265 222 212 202 182 174 177 178 174 174 169 163 163 165 168 169 168 163 160 155 156 163 172 176 197 202 190 192 179 182 151 173 189 192
240 241 246 237 243 256 256 258 274 276 276 270 228 236 195 174 178 178 170 167 168 168 166 168 170 167 168 165 162 159 157 164 167 185 192 205 210 200 183 167 157 186 189 200
250 247 244 250 247 251 262 278 270 256 257 252 235 237 201 184 176 173 165 168 172 167 166 165 164 161 168 168 166 163 159 165 169 181 190 197 218 216 196 187 180 200 196 198
239 239 232 233 240 236 232 251 263 260 239 241 223 239 159 164 171 171 166 168 169 164 161 163 164 165 169 170 167 162 160 168 174 180 190 192 206 209 205 222 216 222 206 183
235 231 223 223 235 236 234 226 233 250 261 248 219 217 156 146 165 156 154 158 159 161 162 166 167 167 170 171 167 164 161 170 177 182 190 190 196 206 215 215 233 231 236 184
256 235 222 220 230 241 244 244 250 254 264 272 255 179 174 162 173 165 160 154 153 159 164 164 168 169 170 172 170 171 163 168 176 183 185 186 193 209 228 211 220 236 250 224
268 276 250 216 224 234 251 259 266 257 267 266 273 245 190 163 173 160 158 152 147 149 160 162 165 164 168 170 169 168 164 169 175 183 188 186 190 200 221 222 211 216 229 284
245 256 257 235 227 237 241 244 251 269 270 264 264 274 137 180 168 169 161 153 150 156 166 157 153 159 163 166 167 163 165 165 171 181 184 189 181 191 201 204 203 209 219 233
239 252 259 253 246 245 249 253 246 252 261 270 277 272 128 156 141 149 143 137 146 153 151 145 145 150 158 164 167 163 167 169 174 179 179 189 186 185 194 196 200 202 210 215
298 266 254 245 232 232 248 253 255 255 254 251 255 257 153 135 144 142 128 131 134 134 132 133 136 140 154 162 161 164 170 173 177 181 184 184 194 192 193 193 190 198 206 215
269 263 263 263 272 270 255 251 251 257 258 247 240 237 192 139 145 136 133 139 137 128 119 126 127 133 140 151 153 161 170 177 175 175 183 185 191 191 189 191 190 193 198 202
246 254 260 264 272 276 267 260 249 251 259 260 249 247 249 128 115 121 132 134 129 125 126 129 132 131 140 149 156 163 170 169 171 171 181 183 181 181 184 190 190 188 203 212
248 259 265 264 262 268 271 264 253 249 255 252 251 257 358 66 74 85 91 110 118 126 138 140 140 141 147 152 164 173 164 161 161 170 180 172 174 180 183 190 187 193 201 203
253 258 260 261 266 261 256 258 256 254 254 259 250 290 79 81 78 67 70 86 83 93 121 146 157 156 162 165 165 179 169 162 166 173 178 170 174 183 187 196 191 198 199 198
256 271 260 259 259 255 258 271 253 254 269 13 76 71 67 98 101 74 68 74 72 59 59 68 145 158 163 169 169 176 179 167 172 179 183 174 177 187 186 195 197 192 190 195
233 246 258 254 250 251 252 251 250 242 245 63 94 86 65 70 99 76 67 66 54 49 49 58 61 125 126 152 155 158 177 174 180 185 184 180 181 186 191 194 192 187 185 192
215 219 243 252 255 254 263 296 296 260 223 85 78 65 47 348 261 80 58 55 47 37 38 37 54 76 82 97 138 162 186 182 184 187 183 183 184 190 193 194 192 193 188 198
208 213 230 244 254 251 298 309 283 244 171 68 66 73 65 43 37 80 75 64 62 49 47 44 46 65 80 76 116 150 169 188 189 180 174 181 186 194 193 185 185 182 197 207
226 224 228 240 248 240 333 300 345 59 54 57 59 65 71 85 87 81 71 65 62 55 48 40 42 54 75 85 100 103 133 152 168 171 178 183 185 209 197 175 185 198 212 210
239 249 260 270 260 77 66 77 77 72 60 47 61 75 90 85 82 78 68 65 56 42 38 24 29 37 52 77 75 30 177 173 196 186 187 189 192 205 187 182 199 211 213 221
225 237 263 282 271 75 64 65 78 69 53 36 61 78 87 91 84 67 51 48 51 28 28 21 20 21 26 27 323 270 246 192 211 211 202 202 207 206 190 188 203 217 220 224
291 276 243 238 258 283 331 13 39 65 46 35 42 47 63 67 55 52 46 45 39 21 18 15 1 358 7 357 333 307 305 255 238 240 227 222 224 209 194 204 211 218 223 229
280 281 268 262 282 277 279 295 277 298 344 10 6 6 18 351 322 328 358 30 24 343 350 345 334 333 335 337 339 338 332 305 266 249 242 241 235 212 212 214 238 350 266 223